VLG38UH LEBB-LEBL

Flight info

Callsign VLG38UH
Flight time N/A
Altitude 30000
Route PPN M601 GRAUS
Aircraft A320/M-SDE3FGHIRWY/LB1

Departure

Time 2026-05-05 08:06
Airport Bilbao Airport (LEBB)

Arrival

Time N/A
Airport Josep Tarradellas Barcelona-El Prat Airport (LEBL)
Time Latitude Longitude Altitude Speed Heading
2026-05-05 07:41 43.30407 -2.90576 128 ft 0 kts 26°
2026-05-05 07:58 43.30400 -2.90581 127 ft 4 kts 28°
2026-05-05 07:58 43.30377 -2.90600 123 ft 4 kts 38°
2026-05-05 07:59 43.30358 -2.90626 123 ft 4 kts 62°
2026-05-05 07:59 43.30354 -2.90654 123 ft 2 kts 116°
2026-05-05 07:59 43.30357 -2.90661 124 ft 0 kts 117°
2026-05-05 08:01 43.30352 -2.90648 125 ft 3 kts 117°
2026-05-05 08:02 43.30331 -2.90607 125 ft 7 kts 136°
2026-05-05 08:02 43.30279 -2.90555 126 ft 11 kts 145°
2026-05-05 08:02 43.30212 -2.90534 124 ft 12 kts 203°
2026-05-05 08:02 43.30124 -2.90565 126 ft 15 kts 154°
2026-05-05 08:03 43.30065 -2.90431 123 ft 19 kts 117°
2026-05-05 08:03 43.30000 -2.90253 126 ft 23 kts 116°
2026-05-05 08:03 43.29943 -2.90096 126 ft 18 kts 116°
2026-05-05 08:03 43.29882 -2.89928 127 ft 22 kts 116°
2026-05-05 08:04 43.29813 -2.89741 125 ft 19 kts 116°
2026-05-05 08:04 43.29775 -2.89638 126 ft 12 kts 117°
2026-05-05 08:04 43.29733 -2.89576 126 ft 6 kts 169°
2026-05-05 08:04 43.29687 -2.89613 125 ft 10 kts 219°
2026-05-05 08:05 43.29626 -2.89683 127 ft 10 kts 221°
2026-05-05 08:05 43.29623 -2.89729 126 ft 1 kts 296°
2026-05-05 08:05 43.29640 -2.89776 126 ft 20 kts 296°
2026-05-05 08:05 43.29834 -2.90307 123 ft 102 kts 296°
2026-05-05 08:06 43.30247 -2.91434 209 ft 154 kts 296°
2026-05-05 08:06 43.30734 -2.92732 939 ft 153 kts 298°
2026-05-05 08:06 43.31219 -2.94044 1752 ft 155 kts 296°
2026-05-05 08:06 43.31700 -2.95376 2489 ft 159 kts 295°
2026-05-05 08:07 43.32202 -2.96779 3139 ft 167 kts 298°
2026-05-05 08:07 43.32923 -2.98058 3821 ft 174 kts 319°
2026-05-05 08:07 43.33920 -2.99030 4555 ft 178 kts 322°
2026-05-05 08:07 43.34963 -3.00062 5253 ft 192 kts 328°
2026-05-05 08:08 43.36293 -3.00514 5975 ft 210 kts
2026-05-05 08:08 43.37642 -2.99598 6636 ft 233 kts 45°
2026-05-05 08:08 43.38394 -2.97524 7195 ft 261 kts 82°
2026-05-05 08:08 43.38148 -2.95008 7986 ft 273 kts 113°
2026-05-05 08:09 43.37184 -2.92734 8990 ft 278 kts 127°
2026-05-05 08:09 43.35952 -2.90655 10022 ft 283 kts 131°
2026-05-05 08:09 43.34658 -2.88581 10861 ft 292 kts 131°
2026-05-05 08:09 43.33320 -2.86391 11537 ft 307 kts 130°
2026-05-05 08:10 43.31964 -2.84051 12254 ft 319 kts 129°
2026-05-05 08:10 43.30608 -2.81571 13021 ft 330 kts 127°
2026-05-05 08:10 43.29252 -2.78975 13770 ft 340 kts 127°
2026-05-05 08:10 43.27882 -2.76274 14480 ft 348 kts 126°
2026-05-05 08:11 43.26501 -2.73515 15261 ft 353 kts 126°
2026-05-05 08:11 43.25106 -2.70717 16039 ft 357 kts 126°
2026-05-05 08:11 43.23694 -2.67898 16831 ft 360 kts 126°
2026-05-05 08:11 43.22264 -2.65059 17637 ft 364 kts 127°
2026-05-05 08:12 43.20816 -2.62195 18398 ft 368 kts 127°
2026-05-05 08:12 43.19345 -2.59300 19070 ft 372 kts 127°
2026-05-05 08:12 43.17857 -2.56377 19776 ft 376 kts 127°
2026-05-05 08:12 43.16351 -2.53426 20491 ft 380 kts 128°
2026-05-05 08:13 43.14830 -2.50448 21175 ft 383 kts 128°
2026-05-05 08:13 43.13295 -2.47439 21823 ft 387 kts 128°
2026-05-05 08:13 43.11742 -2.44398 22449 ft 391 kts 128°
2026-05-05 08:13 43.10174 -2.41333 23097 ft 395 kts 128°
2026-05-05 08:14 43.08595 -2.38249 23703 ft 398 kts 128°
2026-05-05 08:14 43.07016 -2.35171 24185 ft 402 kts 128°
2026-05-05 08:14 43.05411 -2.32012 24676 ft 406 kts 128°
2026-05-05 08:14 43.03843 -2.28872 24906 ft 394 kts 126°
2026-05-05 08:15 43.02750 -2.25467 24585 ft 393 kts 107°
2026-05-05 08:15 43.02562 -2.21769 24381 ft 389 kts 85°
2026-05-05 08:15 43.03296 -2.18270 24259 ft 380 kts 64°
2026-05-05 08:15 43.04698 -2.15269 24054 ft 370 kts 54°
2026-05-05 08:16 43.05711 -2.13354 23717 ft 365 kts 54°
2026-05-05 08:16 43.07196 -2.10576 23091 ft 360 kts 54°
2026-05-05 08:16 43.08664 -2.07836 22396 ft 356 kts 54°
2026-05-05 08:16 43.10120 -2.05157 21623 ft 355 kts 50°
2026-05-05 08:17 43.11966 -2.02964 20804 ft 352 kts 28°
2026-05-05 08:17 43.14244 -2.01869 20003 ft 346 kts
2026-05-05 08:17 43.16601 -2.02019 19236 ft 338 kts 342°
2026-05-05 08:17 43.18722 -2.03281 18468 ft 330 kts 322°
2026-05-05 08:18 43.20369 -2.05396 17648 ft 322 kts 303°
2026-05-05 08:18 43.21394 -2.08072 16814 ft 315 kts 284°
2026-05-05 08:18 43.21734 -2.10995 16002 ft 309 kts 267°
2026-05-05 08:18 43.21397 -2.13870 15209 ft 304 kts 250°
2026-05-05 08:19 43.20651 -2.16569 14420 ft 302 kts 248°
2026-05-05 08:19 43.19897 -2.19249 13654 ft 301 kts 248°
2026-05-05 08:19 43.19145 -2.21920 12830 ft 300 kts 248°
2026-05-05 08:19 43.18399 -2.24579 12009 ft 298 kts 248°
2026-05-05 08:20 43.17658 -2.27224 11212 ft 297 kts 249°
2026-05-05 08:20 43.17149 -2.29944 10437 ft 294 kts 260°
2026-05-05 08:20 43.16828 -2.32681 9870 ft 286 kts 261°
2026-05-05 08:20 43.16530 -2.35311 9457 ft 273 kts 261°
2026-05-05 08:21 43.16246 -2.37824 9059 ft 262 kts 261°
2026-05-05 08:21 43.15970 -2.40243 8656 ft 253 kts 261°
2026-05-05 08:21 43.15701 -2.42598 8338 ft 250 kts 261°
2026-05-05 08:21 43.15432 -2.44945 8035 ft 249 kts 262°
2026-05-05 08:22 43.15443 -2.47300 7720 ft 248 kts 275°
2026-05-05 08:22 43.15613 -2.49641 7477 ft 245 kts 275°
2026-05-05 08:22 43.15808 -2.51945 7246 ft 242 kts 282°
2026-05-05 08:22 43.16447 -2.54049 7007 ft 238 kts 296°
2026-05-05 08:23 43.17191 -2.56059 6694 ft 236 kts 296°
2026-05-05 08:23 43.17932 -2.58048 6369 ft 234 kts 296°
2026-05-05 08:23 43.18669 -2.60029 6022 ft 233 kts 296°
2026-05-05 08:23 43.19406 -2.62014 5604 ft 234 kts 296°
2026-05-05 08:24 43.20135 -2.63983 5188 ft 235 kts 296°
2026-05-05 08:24 43.20875 -2.65984 4801 ft 236 kts 297°
2026-05-05 08:24 43.21607 -2.67961 4466 ft 227 kts 297°
2026-05-05 08:24 43.22310 -2.69863 4021 ft 221 kts 297°
2026-05-05 08:25 43.22999 -2.71726 3557 ft 217 kts 297°
2026-05-05 08:25 43.23666 -2.73540 3218 ft 209 kts 296°
2026-05-05 08:25 43.24307 -2.75287 2894 ft 201 kts 297°
2026-05-05 08:25 43.24925 -2.76964 2597 ft 194 kts 297°
2026-05-05 08:26 43.25518 -2.78572 2321 ft 184 kts 296°
2026-05-05 08:26 43.26067 -2.80064 2038 ft 165 kts 296°
2026-05-05 08:26 43.26558 -2.81396 1781 ft 149 kts 297°
2026-05-05 08:26 43.27000 -2.82598 1554 ft 136 kts 297°
2026-05-05 08:27 43.27414 -2.83733 1313 ft 131 kts 297°
2026-05-05 08:27 43.27830 -2.84836 1096 ft 130 kts 298°
2026-05-05 08:27 43.28249 -2.85923 890 ft 128 kts 300°
2026-05-05 08:27 43.28651 -2.87009 701 ft 128 kts 296°
2026-05-05 08:28 43.29036 -2.88112 522 ft 128 kts 297°
2026-05-05 08:28 43.29430 -2.89204 328 ft 127 kts 297°
2026-05-05 08:28 43.29827 -2.90286 147 ft 127 kts 297°
2026-05-05 08:28 43.30175 -2.91237 125 ft 89 kts 297°
2026-05-05 08:29 43.30375 -2.91775 125 ft 36 kts 301°
2026-05-05 08:29 43.30522 -2.91985 126 ft 29 kts 326°
2026-05-05 08:29 43.30627 -2.92025 124 ft 16 kts 45°
2026-05-05 08:30 43.30509 -2.91640 126 ft 28 kts 117°
2026-05-05 08:30 43.30422 -2.91405 126 ft 29 kts 118°
2026-05-05 08:30 43.30340 -2.91183 127 ft 21 kts 116°
2026-05-05 08:30 43.30338 -2.91016 125 ft 20 kts 39°
2026-05-05 08:31 43.30411 -2.90877 123 ft 21 kts 84°
2026-05-05 08:31 43.30369 -2.90697 126 ft 13 kts 116°
2026-05-05 08:31 43.30418 -2.90638 126 ft 9 kts 26°